Regional Weather Roundup
Issued by NWS

Home | Current Version | Previous Version | Graphics & Text | Print | Product List | Glossary On
Versions: 1 2 3 4 5 6 7 8 9 10 11 12 13 14 15 16 17 18 19 20 21 22 23 24 25 26 27 28 29 30 31 32 33 34 35 36 37 38 39 40 41 42 43 44 45 46 47 48 49 50
000
ASUS43 KFSD 011102
RWRSD

WEATHER ROUNDUP FOR SOUTH DAKOTA
NATIONAL WEATHER SERVICE SIOUX FALLS SD
500 AM CST SUN FEB 01 2015

NOTE: "FAIR" INDICATES FEW OR NO CLOUDS BELOW 12,000 FEET WITH NO
SIGNIFICANT WEATHER AND/OR OBSTRUCTIONS TO VISIBILITY.


SDZ001>005-009-010-012>017-011200-
NORTHWEST AND NORTH CENTRAL SOUTH DAKOTA

CITY           SKY/WX    TMP DP  RH WIND       PRES   REMARKS
BUFFALO          N/A      0  -5  79 N10       30.25R WCI -16
FAITH            N/A     -2  -7  79 N16       30.32R WCI -23
MOBRIDGE       LGT SNOW  -2  -9  72 N17       30.36R WCI -23
$$

SDZ012>016-024>037-041>051-057-063-072>074-011200-
SOUTHWEST AND SOUTH CENTRAL SOUTH DAKOTA

CITY           SKY/WX    TMP DP  RH WIND       PRES   REMARKS
RAPID CTY ARPT CLOUDY     5   1  83 N16       30.24S WCI -14
PIERRE         LGT SNOW   2  -3  80 N18       30.32R WCI -19
CUSTER         CLOUDY    12   5  73 NE5       30.00R WCI   4
ELLSWORTH AFB  FLURRIES   6   2  85 N12       30.25  WCI -10
PHILIP         LGT SNOW   4  -2  76 N16       30.32R WCI -15
PINE RIDGE     FLURRIES   9   3  77 N13G20    30.19R WCI  -7
WINNER         LGT SNOW   5   0  79 N17       30.24R WCI -14
$$

SDZ004>011-016>023-039-040-011200-
NORTHEAST SOUTH DAKOTA

CITY           SKY/WX    TMP DP  RH WIND       PRES   REMARKS
ABERDEEN       LGT SNOW  -1  -8  72 N24G31    30.36R WCI -25
WATERTOWN      LGT SNOW   0  -5  79 N21G32    30.20R WCI -22
SISSETON         N/A      0  -7  72 N22       30.35R WCI -23
$$

SDZ017-020-022-023-036>040-048>070-011200-
SOUTHEAST SOUTH DAKOTA

CITY           SKY/WX    TMP DP  RH WIND       PRES   REMARKS
SIOUX FALLS    LGT SNOW  15  11  83 N20G33    30.07R VSB 3/4 WCI  -2
HURON          LGT SNOW   1  -3  83 N22G28    30.27R FOG     WCI -21
MITCHELL       LGT SNOW   6   3  87 N22       30.22R VSB 1   WCI -15
YANKTON        CLOUDY    18  12  79 N21G29    30.10R WCI   1
$$

ABBREVIATIONS USED IN REMARKS
   TC - TEMPERATURE IN CELSIUS
  WCI - WIND CHILL INDEX
   HX - HEAT INDEX
  VSB - VISIBILITY



USA.gov is the U.S. government's official web portal to all federal, state and local government web resources and services.